owner,sensor,date,latitude,longitude,sea_surface_height_above_sea_level,qcFlag 
TCOON,ioos:station:TCOON:003:1,2014-07-01T00:12:00Z,26.8015,-97.4706,1.491,1111122 
TCOON,ioos:station:TCOON:003:1,2014-07-01T01:12:00Z,26.8015,-97.4706,1.489,1111122 
TCOON,ioos:station:TCOON:003:1,2014-07-01T02:12:00Z,26.8015,-97.4706,1.493,1111122 
TCOON,ioos:station:TCOON:003:1,2014-07-01T03:12:00Z,26.8015,-97.4706,1.486,1111122 
TCOON,ioos:station:TCOON:003:1,2014-07-01T04:12:00Z,26.8015,-97.4706,1.472,1111122 
TCOON,ioos:station:TCOON:003:1,2014-07-01T05:12:00Z,26.8015,-97.4706,1.462,1111122 
TCOON,ioos:station:TCOON:003:1,2014-07-01T06:36:00Z,26.8015,-97.4706,1.46,1111122 
TCOON,ioos:station:TCOON:003:1,2014-07-01T07:12:00Z,26.8015,-97.4706,1.455,1111122 
TCOON,ioos:station:TCOON:003:1,2014-07-01T08:12:00Z,26.8015,-97.4706,1.449,1111122 
TCOON,ioos:station:TCOON:003:1,2014-07-01T09:12:00Z,26.8015,-97.4706,1.435,1111122 
TCOON,ioos:station:TCOON:003:1,2014-07-01T10:12:00Z,26.8015,-97.4706,1.436,1111122 
TCOON,ioos:station:TCOON:003:1,2014-07-01T11:12:00Z,26.8015,-97.4706,1.428,1111122 
TCOON,ioos:station:TCOON:003:1,2014-07-01T12:12:00Z,26.8015,-97.4706,1.415,1111122 
TCOON,ioos:station:TCOON:003:1,2014-07-01T13:12:00Z,26.8015,-97.4706,1.401,1111122 
TCOON,ioos:station:TCOON:003:1,2014-07-01T14:12:00Z,26.8015,-97.4706,1.369,1111122 
TCOON,ioos:station:TCOON:003:1,2014-07-01T15:12:00Z,26.8015,-97.4706,1.36,1111122 
TCOON,ioos:station:TCOON:003:1,2014-07-01T16:12:00Z,26.8015,-97.4706,1.376,1111122 
TCOON,ioos:station:TCOON:003:1,2014-07-01T17:12:00Z,26.8015,-97.4706,1.397,1111122 
TCOON,ioos:station:TCOON:003:1,2014-07-01T18:12:00Z,26.8015,-97.4706,1.416,1111122 
TCOON,ioos:station:TCOON:003:1,2014-07-01T19:12:00Z,26.8015,-97.4706,1.43,1111122 
TCOON,ioos:station:TCOON:003:1,2014-07-01T20:06:00Z,26.8015,-97.4706,1.45,1111122 
TCOON,ioos:station:TCOON:003:1,2014-07-01T21:12:00Z,26.8015,-97.4706,1.47,1111122 
TCOON,ioos:station:TCOON:003:1,2014-07-01T22:12:00Z,26.8015,-97.4706,1.462,1111122 
TCOON,ioos:station:TCOON:003:1,2014-07-01T23:12:00Z,26.8015,-97.4706,1.445,1111122 
TCOON,ioos:station:TCOON:003:1,2014-07-02T00:12:00Z,26.8015,-97.4706,1.424,1111122 
TCOON,ioos:station:TCOON:003:1,2014-07-02T01:12:00Z,26.8015,-97.4706,1.391,1111122 
TCOON,ioos:station:TCOON:003:1,2014-07-02T02:12:00Z,26.8015,-97.4706,1.365,1111122 
TCOON,ioos:station:TCOON:003:1,2014-07-02T03:12:00Z,26.8015,-97.4706,1.357,1111122 
TCOON,ioos:station:TCOON:003:1,2014-07-02T04:12:00Z,26.8015,-97.4706,1.369,1111122 
TCOON,ioos:station:TCOON:003:1,2014-07-02T05:12:00Z,26.8015,-97.4706,1.365,1111122 
TCOON,ioos:station:TCOON:003:1,2014-07-02T06:42:00Z,26.8015,-97.4706,1.346,1111122 
TCOON,ioos:station:TCOON:003:1,2014-07-02T07:12:00Z,26.8015,-97.4706,1.338,1111122 
TCOON,ioos:station:TCOON:003:1,2014-07-02T08:12:00Z,26.8015,-97.4706,1.315,1111122 
TCOON,ioos:station:TCOON:003:1,2014-07-02T09:12:00Z,26.8015,-97.4706,1.292,1111122 
TCOON,ioos:station:TCOON:003:1,2014-07-02T10:12:00Z,26.8015,-97.4706,1.277,1111122 
TCOON,ioos:station:TCOON:003:1,2014-07-02T11:12:00Z,26.8015,-97.4706,1.25,1111122 
TCOON,ioos:station:TCOON:003:1,2014-07-02T12:12:00Z,26.8015,-97.4706,1.241,1111122 
TCOON,ioos:station:TCOON:003:1,2014-07-02T13:12:00Z,26.8015,-97.4706,1.224,1111122 
TCOON,ioos:station:TCOON:003:1,2014-07-02T14:12:00Z,26.8015,-97.4706,1.229,1111122 
TCOON,ioos:station:TCOON:003:1,2014-07-02T15:06:00Z,26.8015,-97.4706,1.233,1111122 
TCOON,ioos:station:TCOON:003:1,2014-07-02T16:12:00Z,26.8015,-97.4706,1.246,1111122 
TCOON,ioos:station:TCOON:003:1,2014-07-02T17:12:00Z,26.8015,-97.4706,1.262,1111122 
TCOON,ioos:station:TCOON:003:1,2014-07-02T18:12:00Z,26.8015,-97.4706,1.278,1111122 
TCOON,ioos:station:TCOON:003:1,2014-07-02T19:12:00Z,26.8015,-97.4706,1.27,1111122 
TCOON,ioos:station:TCOON:003:1,2014-07-02T20:12:00Z,26.8015,-97.4706,1.229,1111122 
TCOON,ioos:station:TCOON:003:1,2014-07-02T21:12:00Z,26.8015,-97.4706,1.211,1111122 
TCOON,ioos:station:TCOON:003:1,2014-07-02T22:12:00Z,26.8015,-97.4706,1.218,1111122 
TCOON,ioos:station:TCOON:003:1,2014-07-02T23:12:00Z,26.8015,-97.4706,1.233,1111122 
TCOON,ioos:station:TCOON:003:1,2014-07-03T00:12:00Z,26.8015,-97.4706,1.241,1111122 
TCOON,ioos:station:TCOON:003:1,2014-07-03T01:12:00Z,26.8015,-97.4706,1.237,1111122 
TCOON,ioos:station:TCOON:003:1,2014-07-03T02:12:00Z,26.8015,-97.4706,1.226,1111122 
TCOON,ioos:station:TCOON:003:1,2014-07-03T03:06:00Z,26.8015,-97.4706,1.217,1111122 
TCOON,ioos:station:TCOON:003:1,2014-07-03T04:12:00Z,26.8015,-97.4706,1.214,1111122 
TCOON,ioos:station:TCOON:003:1,2014-07-03T05:12:00Z,26.8015,-97.4706,1.227,1111122 
TCOON,ioos:station:TCOON:003:1,2014-07-03T06:12:00Z,26.8015,-97.4706,1.236,1111122 
TCOON,ioos:station:TCOON:003:1,2014-07-03T07:12:00Z,26.8015,-97.4706,1.214,1111122 
TCOON,ioos:station:TCOON:003:1,2014-07-03T08:12:00Z,26.8015,-97.4706,1.168,1111122 
TCOON,ioos:station:TCOON:003:1,2014-07-03T09:12:00Z,26.8015,-97.4706,1.146,1111122 
TCOON,ioos:station:TCOON:003:1,2014-07-03T10:12:00Z,26.8015,-97.4706,1.137,1111122 
TCOON,ioos:station:TCOON:003:1,2014-07-03T11:12:00Z,26.8015,-97.4706,1.137,1111122 
TCOON,ioos:station:TCOON:003:1,2014-07-03T12:12:00Z,26.8015,-97.4706,1.139,1111122 
TCOON,ioos:station:TCOON:003:1,2014-07-03T13:12:00Z,26.8015,-97.4706,1.14,1111122 
TCOON,ioos:station:TCOON:003:1,2014-07-03T14:12:00Z,26.8015,-97.4706,1.14,1111122 
TCOON,ioos:station:TCOON:003:1,2014-07-03T15:12:00Z,26.8015,-97.4706,1.141,1111122 
TCOON,ioos:station:TCOON:003:1,2014-07-03T16:12:00Z,26.8015,-97.4706,1.146,1111122 
TCOON,ioos:station:TCOON:003:1,2014-07-03T17:06:00Z,26.8015,-97.4706,1.148,1111122 
TCOON,ioos:station:TCOON:003:1,2014-07-03T18:12:00Z,26.8015,-97.4706,1.154,1111122 
TCOON,ioos:station:TCOON:003:1,2014-07-03T19:12:00Z,26.8015,-97.4706,1.148,1111122 
TCOON,ioos:station:TCOON:003:1,2014-07-03T20:12:00Z,26.8015,-97.4706,1.146,1111122 
TCOON,ioos:station:TCOON:003:1,2014-07-03T21:12:00Z,26.8015,-97.4706,1.144,1111122 
TCOON,ioos:station:TCOON:003:1,2014-07-03T22:12:00Z,26.8015,-97.4706,1.152,1111122 
TCOON,ioos:station:TCOON:003:1,2014-07-03T23:12:00Z,26.8015,-97.4706,1.152,1111122 
TCOON,ioos:station:TCOON:003:1,2014-07-04T00:12:00Z,26.8015,-97.4706,1.162,1111122 
TCOON,ioos:station:TCOON:003:1,2014-07-04T01:12:00Z,26.8015,-97.4706,1.168,1111122 
TCOON,ioos:station:TCOON:003:1,2014-07-04T02:12:00Z,26.8015,-97.4706,1.174,1111122 
TCOON,ioos:station:TCOON:003:1,2014-07-04T03:12:00Z,26.8015,-97.4706,1.17,1111122 
TCOON,ioos:station:TCOON:003:1,2014-07-04T04:12:00Z,26.8015,-97.4706,1.158,1111122 
TCOON,ioos:station:TCOON:003:1,2014-07-04T05:12:00Z,26.8015,-97.4706,1.153,1111122 
TCOON,ioos:station:TCOON:003:1,2014-07-04T06:36:00Z,26.8015,-97.4706,1.148,1111122 
TCOON,ioos:station:TCOON:003:1,2014-07-04T07:12:00Z,26.8015,-97.4706,1.147,1111122 
TCOON,ioos:station:TCOON:003:1,2014-07-04T08:12:00Z,26.8015,-97.4706,1.134,1111122 
TCOON,ioos:station:TCOON:003:1,2014-07-04T09:12:00Z,26.8015,-97.4706,1.119,1111122 
TCOON,ioos:station:TCOON:003:1,2014-07-04T10:12:00Z,26.8015,-97.4706,1.108,1111122 
TCOON,ioos:station:TCOON:003:1,2014-07-04T11:12:00Z,26.8015,-97.4706,1.087,1111122 
TCOON,ioos:station:TCOON:003:1,2014-07-04T12:12:00Z,26.8015,-97.4706,1.068,1111122 
TCOON,ioos:station:TCOON:003:1,2014-07-04T13:12:00Z,26.8015,-97.4706,1.063,1111122 
TCOON,ioos:station:TCOON:003:1,2014-07-04T14:12:00Z,26.8015,-97.4706,1.062,1111122 
TCOON,ioos:station:TCOON:003:1,2014-07-04T15:12:00Z,26.8015,-97.4706,1.072,1111122 
TCOON,ioos:station:TCOON:003:1,2014-07-04T16:12:00Z,26.8015,-97.4706,1.091,1111122 
TCOON,ioos:station:TCOON:003:1,2014-07-04T17:12:00Z,26.8015,-97.4706,1.102,1111122 
TCOON,ioos:station:TCOON:003:1,2014-07-04T18:12:00Z,26.8015,-97.4706,1.103,1111122 
TCOON,ioos:station:TCOON:003:1,2014-07-04T19:12:00Z,26.8015,-97.4706,1.105,1111122 
TCOON,ioos:station:TCOON:003:1,2014-07-04T20:12:00Z,26.8015,-97.4706,1.096,1111122 
TCOON,ioos:station:TCOON:003:1,2014-07-04T21:12:00Z,26.8015,-97.4706,1.093,1111122 
TCOON,ioos:station:TCOON:003:1,2014-07-04T22:12:00Z,26.8015,-97.4706,1.103,1111122 
TCOON,ioos:station:TCOON:003:1,2014-07-04T23:12:00Z,26.8015,-97.4706,1.105,1111122 
TCOON,ioos:station:TCOON:003:1,2014-07-05T00:12:00Z,26.8015,-97.4706,1.105,1111122 
TCOON,ioos:station:TCOON:003:1,2014-07-05T01:12:00Z,26.8015,-97.4706,1.092,1111122 
TCOON,ioos:station:TCOON:003:1,2014-07-05T02:12:00Z,26.8015,-97.4706,1.082,1111122 
TCOON,ioos:station:TCOON:003:1,2014-07-05T03:12:00Z,26.8015,-97.4706,1.08,1111122 
TCOON,ioos:station:TCOON:003:1,2014-07-05T04:06:00Z,26.8015,-97.4706,1.082,1111122 
TCOON,ioos:station:TCOON:003:1,2014-07-05T05:12:00Z,26.8015,-97.4706,1.084,1111122 
TCOON,ioos:station:TCOON:003:1,2014-07-05T06:12:00Z,26.8015,-97.4706,1.086,1111122 
TCOON,ioos:station:TCOON:003:1,2014-07-05T07:12:00Z,26.8015,-97.4706,1.088,1111122 
TCOON,ioos:station:TCOON:003:1,2014-07-05T08:12:00Z,26.8015,-97.4706,1.088,1111122 
TCOON,ioos:station:TCOON:003:1,2014-07-05T09:12:00Z,26.8015,-97.4706,1.082,1111122 
TCOON,ioos:station:TCOON:003:1,2014-07-05T10:12:00Z,26.8015,-97.4706,1.071,1111122 
TCOON,ioos:station:TCOON:003:1,2014-07-05T11:12:00Z,26.8015,-97.4706,1.062,1111122 
TCOON,ioos:station:TCOON:003:1,2014-07-05T12:12:00Z,26.8015,-97.4706,1.058,1111122 
TCOON,ioos:station:TCOON:003:1,2014-07-05T13:12:00Z,26.8015,-97.4706,1.058,1111122 
TCOON,ioos:station:TCOON:003:1,2014-07-05T14:12:00Z,26.8015,-97.4706,1.064,1111122 
TCOON,ioos:station:TCOON:003:1,2014-07-05T15:12:00Z,26.8015,-97.4706,1.082,1111122 
TCOON,ioos:station:TCOON:003:1,2014-07-05T16:12:00Z,26.8015,-97.4706,1.098,1111122 
TCOON,ioos:station:TCOON:003:1,2014-07-05T17:06:00Z,26.8015,-97.4706,1.112,1111122 
TCOON,ioos:station:TCOON:003:1,2014-07-05T18:12:00Z,26.8015,-97.4706,1.117,1111122 
TCOON,ioos:station:TCOON:003:1,2014-07-05T19:12:00Z,26.8015,-97.4706,1.114,1111122 
TCOON,ioos:station:TCOON:003:1,2014-07-05T20:12:00Z,26.8015,-97.4706,1.14,1111122 
TCOON,ioos:station:TCOON:003:1,2014-07-05T21:12:00Z,26.8015,-97.4706,1.094,1111122 
TCOON,ioos:station:TCOON:003:1,2014-07-05T22:12:00Z,26.8015,-97.4706,1.073,1111122 
TCOON,ioos:station:TCOON:003:1,2014-07-05T23:12:00Z,26.8015,-97.4706,1.062,1111122 
TCOON,ioos:station:TCOON:003:1,2014-07-06T00:12:00Z,26.8015,-97.4706,1.063,1111122 
TCOON,ioos:station:TCOON:003:1,2014-07-06T01:06:00Z,26.8015,-97.4706,1.092,1111122 
TCOON,ioos:station:TCOON:003:1,2014-07-06T02:12:00Z,26.8015,-97.4706,1.127,1111122 
TCOON,ioos:station:TCOON:003:1,2014-07-06T03:12:00Z,26.8015,-97.4706,1.131,1111122 
TCOON,ioos:station:TCOON:003:1,2014-07-06T04:12:00Z,26.8015,-97.4706,1.129,1111122 
TCOON,ioos:station:TCOON:003:1,2014-07-06T05:12:00Z,26.8015,-97.4706,1.134,1111122 
TCOON,ioos:station:TCOON:003:1,2014-07-06T06:36:00Z,26.8015,-97.4706,1.123,1111122 
TCOON,ioos:station:TCOON:003:1,2014-07-06T07:12:00Z,26.8015,-97.4706,1.125,1111122 
TCOON,ioos:station:TCOON:003:1,2014-07-06T08:12:00Z,26.8015,-97.4706,1.128,1111122 
TCOON,ioos:station:TCOON:003:1,2014-07-06T09:12:00Z,26.8015,-97.4706,1.13,1111122 
TCOON,ioos:station:TCOON:003:1,2014-07-06T10:12:00Z,26.8015,-97.4706,1.125,1111122 
TCOON,ioos:station:TCOON:003:1,2014-07-06T11:12:00Z,26.8015,-97.4706,1.121,1111122 
TCOON,ioos:station:TCOON:003:1,2014-07-06T12:12:00Z,26.8015,-97.4706,1.118,1111122 
TCOON,ioos:station:TCOON:003:1,2014-07-06T13:12:00Z,26.8015,-97.4706,1.119,1111122 
TCOON,ioos:station:TCOON:003:1,2014-07-06T14:12:00Z,26.8015,-97.4706,1.124,1111122 
TCOON,ioos:station:TCOON:003:1,2014-07-06T15:12:00Z,26.8015,-97.4706,1.133,1111122 
TCOON,ioos:station:TCOON:003:1,2014-07-06T16:12:00Z,26.8015,-97.4706,1.138,1111122 
TCOON,ioos:station:TCOON:003:1,2014-07-06T17:12:00Z,26.8015,-97.4706,1.15,1111122 
TCOON,ioos:station:TCOON:003:1,2014-07-06T18:06:00Z,26.8015,-97.4706,1.154,1111122 
TCOON,ioos:station:TCOON:003:1,2014-07-06T19:12:00Z,26.8015,-97.4706,1.156,1111122 
TCOON,ioos:station:TCOON:003:1,2014-07-06T20:12:00Z,26.8015,-97.4706,1.185,1111122 
TCOON,ioos:station:TCOON:003:1,2014-07-06T21:12:00Z,26.8015,-97.4706,1.215,1111122 
TCOON,ioos:station:TCOON:003:1,2014-07-06T22:12:00Z,26.8015,-97.4706,1.232,1111122 
TCOON,ioos:station:TCOON:003:1,2014-07-06T23:12:00Z,26.8015,-97.4706,1.239,1111122 
TCOON,ioos:station:TCOON:003:1,2014-07-07T00:12:00Z,26.8015,-97.4706,1.228,1111122 
TCOON,ioos:station:TCOON:003:1,2014-07-07T01:12:00Z,26.8015,-97.4706,1.216,1111122 
TCOON,ioos:station:TCOON:003:1,2014-07-07T02:12:00Z,26.8015,-97.4706,1.204,1111122 
TCOON,ioos:station:TCOON:003:1,2014-07-07T03:12:00Z,26.8015,-97.4706,1.202,1111122 
TCOON,ioos:station:TCOON:003:1,2014-07-07T04:12:00Z,26.8015,-97.4706,1.191,1111122 
TCOON,ioos:station:TCOON:003:1,2014-07-07T05:12:00Z,26.8015,-97.4706,1.173,1111122 
TCOON,ioos:station:TCOON:003:1,2014-07-07T06:12:00Z,26.8015,-97.4706,1.16,1111122 
TCOON,ioos:station:TCOON:003:1,2014-07-07T07:12:00Z,26.8015,-97.4706,1.147,1111122 
TCOON,ioos:station:TCOON:003:1,2014-07-07T08:12:00Z,26.8015,-97.4706,1.159,1111122 
TCOON,ioos:station:TCOON:003:1,2014-07-07T09:12:00Z,26.8015,-97.4706,1.16,1111122 
TCOON,ioos:station:TCOON:003:1,2014-07-07T10:12:00Z,26.8015,-97.4706,1.157,1111122 
TCOON,ioos:station:TCOON:003:1,2014-07-07T11:12:00Z,26.8015,-97.4706,1.152,1111122 
TCOON,ioos:station:TCOON:003:1,2014-07-07T12:12:00Z,26.8015,-97.4706,1.146,1111122 
TCOON,ioos:station:TCOON:003:1,2014-07-07T13:12:00Z,26.8015,-97.4706,1.138,1111122 
TCOON,ioos:station:TCOON:003:1,2014-07-07T14:12:00Z,26.8015,-97.4706,1.14,1111122 
TCOON,ioos:station:TCOON:003:1,2014-07-07T15:06:00Z,26.8015,-97.4706,1.148,1111122 
TCOON,ioos:station:TCOON:003:1,2014-07-07T16:12:00Z,26.8015,-97.4706,1.159,1111122 
TCOON,ioos:station:TCOON:003:1,2014-07-07T17:12:00Z,26.8015,-97.4706,1.176,1111122 
TCOON,ioos:station:TCOON:003:1,2014-07-07T18:12:00Z,26.8015,-97.4706,1.198,1111122 
TCOON,ioos:station:TCOON:003:1,2014-07-07T19:12:00Z,26.8015,-97.4706,1.222,1111122 
TCOON,ioos:station:TCOON:003:1,2014-07-07T20:06:00Z,26.8015,-97.4706,1.233,1111122 
TCOON,ioos:station:TCOON:003:1,2014-07-07T21:12:00Z,26.8015,-97.4706,1.241,1111122 
TCOON,ioos:station:TCOON:003:1,2014-07-07T22:12:00Z,26.8015,-97.4706,1.249,1111122 
TCOON,ioos:station:TCOON:003:1,2014-07-07T23:12:00Z,26.8015,-97.4706,1.258,1111122 
TCOON,ioos:station:TCOON:003:1,2014-07-08T00:12:00Z,26.8015,-97.4706,1.264,1111122 
TCOON,ioos:station:TCOON:003:1,2014-07-08T01:12:00Z,26.8015,-97.4706,1.262,1111122 
TCOON,ioos:station:TCOON:003:1,2014-07-08T02:12:00Z,26.8015,-97.4706,1.251,1111122 
TCOON,ioos:station:TCOON:003:1,2014-07-08T03:12:00Z,26.8015,-97.4706,1.224,1111122 
TCOON,ioos:station:TCOON:003:1,2014-07-08T04:12:00Z,26.8015,-97.4706,1.2,1111122 
TCOON,ioos:station:TCOON:003:1,2014-07-08T05:12:00Z,26.8015,-97.4706,1.194,1111122 
TCOON,ioos:station:TCOON:003:1,2014-07-08T06:12:00Z,26.8015,-97.4706,1.184,1111122 
TCOON,ioos:station:TCOON:003:1,2014-07-08T07:12:00Z,26.8015,-97.4706,1.161,1111122 
TCOON,ioos:station:TCOON:003:1,2014-07-08T08:12:00Z,26.8015,-97.4706,1.141,1111122 
TCOON,ioos:station:TCOON:003:1,2014-07-08T09:12:00Z,26.8015,-97.4706,1.158,1111122 
TCOON,ioos:station:TCOON:003:1,2014-07-08T10:12:00Z,26.8015,-97.4706,1.179,1111122 
TCOON,ioos:station:TCOON:003:1,2014-07-08T11:12:00Z,26.8015,-97.4706,1.189,1111122 
TCOON,ioos:station:TCOON:003:1,2014-07-08T12:12:00Z,26.8015,-97.4706,1.186,1111122 
TCOON,ioos:station:TCOON:003:1,2014-07-08T13:12:00Z,26.8015,-97.4706,1.169,1111122 
TCOON,ioos:station:TCOON:003:1,2014-07-08T14:12:00Z,26.8015,-97.4706,1.15,1111122 
TCOON,ioos:station:TCOON:003:1,2014-07-08T15:12:00Z,26.8015,-97.4706,1.156,1111122 
TCOON,ioos:station:TCOON:003:1,2014-07-08T16:06:00Z,26.8015,-97.4706,1.177,1111122 
TCOON,ioos:station:TCOON:003:1,2014-07-08T17:12:00Z,26.8015,-97.4706,1.203,1111122 
TCOON,ioos:station:TCOON:003:1,2014-07-08T18:06:00Z,26.8015,-97.4706,1.225,1111122 
TCOON,ioos:station:TCOON:003:1,2014-07-08T19:12:00Z,26.8015,-97.4706,1.253,1111122 
TCOON,ioos:station:TCOON:003:1,2014-07-08T20:12:00Z,26.8015,-97.4706,1.275,1111122 
TCOON,ioos:station:TCOON:003:1,2014-07-08T21:12:00Z,26.8015,-97.4706,1.278,1111122 
TCOON,ioos:station:TCOON:003:1,2014-07-08T22:12:00Z,26.8015,-97.4706,1.283,1111122 
TCOON,ioos:station:TCOON:003:1,2014-07-08T23:12:00Z,26.8015,-97.4706,1.306,1111122 
TCOON,ioos:station:TCOON:003:1,2014-07-09T00:12:00Z,26.8015,-97.4706,1.307,1111122 
TCOON,ioos:station:TCOON:003:1,2014-07-09T01:12:00Z,26.8015,-97.4706,1.281,1111122 
TCOON,ioos:station:TCOON:003:1,2014-07-09T02:12:00Z,26.8015,-97.4706,1.258,1111122 
TCOON,ioos:station:TCOON:003:1,2014-07-09T03:12:00Z,26.8015,-97.4706,1.238,1111122 
TCOON,ioos:station:TCOON:003:1,2014-07-09T04:12:00Z,26.8015,-97.4706,1.21,1111122 
TCOON,ioos:station:TCOON:003:1,2014-07-09T05:12:00Z,26.8015,-97.4706,1.203,1111122 
TCOON,ioos:station:TCOON:003:1,2014-07-09T06:12:00Z,26.8015,-97.4706,1.207,1111122 
TCOON,ioos:station:TCOON:003:1,2014-07-09T07:12:00Z,26.8015,-97.4706,1.213,1111122 
TCOON,ioos:station:TCOON:003:1,2014-07-09T08:12:00Z,26.8015,-97.4706,1.195,1111122 
TCOON,ioos:station:TCOON:003:1,2014-07-09T09:12:00Z,26.8015,-97.4706,1.165,1111122 
TCOON,ioos:station:TCOON:003:1,2014-07-09T10:12:00Z,26.8015,-97.4706,1.153,1111122 
TCOON,ioos:station:TCOON:003:1,2014-07-09T11:06:00Z,26.8015,-97.4706,1.147,1111122 
TCOON,ioos:station:TCOON:003:1,2014-07-09T12:12:00Z,26.8015,-97.4706,1.146,1111122 
TCOON,ioos:station:TCOON:003:1,2014-07-09T13:12:00Z,26.8015,-97.4706,1.156,1111122 
TCOON,ioos:station:TCOON:003:1,2014-07-09T14:18:00Z,26.8015,-97.4706,1.174,1111122 
TCOON,ioos:station:TCOON:003:1,2014-07-09T15:06:00Z,26.8015,-97.4706,1.183,1111122 
TCOON,ioos:station:TCOON:003:1,2014-07-09T16:06:00Z,26.8015,-97.4706,1.178,1111122 
TCOON,ioos:station:TCOON:003:1,2014-07-09T17:12:00Z,26.8015,-97.4706,1.191,1111122 
TCOON,ioos:station:TCOON:003:1,2014-07-09T18:12:00Z,26.8015,-97.4706,1.201,1111122 
TCOON,ioos:station:TCOON:003:1,2014-07-09T19:12:00Z,26.8015,-97.4706,1.227,1111122 
TCOON,ioos:station:TCOON:003:1,2014-07-09T20:12:00Z,26.8015,-97.4706,1.247,1111122 
TCOON,ioos:station:TCOON:003:1,2014-07-09T21:12:00Z,26.8015,-97.4706,1.253,1111122 
TCOON,ioos:station:TCOON:003:1,2014-07-09T22:12:00Z,26.8015,-97.4706,1.247,1111122 
TCOON,ioos:station:TCOON:003:1,2014-07-09T23:12:00Z,26.8015,-97.4706,1.236,1111122 
TCOON,ioos:station:TCOON:003:1,2014-07-10T00:12:00Z,26.8015,-97.4706,1.225,1111122 
TCOON,ioos:station:TCOON:003:1,2014-07-10T01:12:00Z,26.8015,-97.4706,1.211,1111122 
TCOON,ioos:station:TCOON:003:1,2014-07-10T02:12:00Z,26.8015,-97.4706,1.2,1111122 
TCOON,ioos:station:TCOON:003:1,2014-07-10T03:12:00Z,26.8015,-97.4706,1.185,1111122 
TCOON,ioos:station:TCOON:003:1,2014-07-10T04:12:00Z,26.8015,-97.4706,1.186,1111122 
TCOON,ioos:station:TCOON:003:1,2014-07-10T05:12:00Z,26.8015,-97.4706,1.177,1111122 
TCOON,ioos:station:TCOON:003:1,2014-07-10T06:12:00Z,26.8015,-97.4706,1.12,1111122 
TCOON,ioos:station:TCOON:003:1,2014-07-10T07:12:00Z,26.8015,-97.4706,1.108,1111122 
TCOON,ioos:station:TCOON:003:1,2014-07-10T08:06:00Z,26.8015,-97.4706,1.111,1111122 
TCOON,ioos:station:TCOON:003:1,2014-07-10T09:12:00Z,26.8015,-97.4706,1.147,1111122 
TCOON,ioos:station:TCOON:003:1,2014-07-10T10:12:00Z,26.8015,-97.4706,1.178,1111122 
TCOON,ioos:station:TCOON:003:1,2014-07-10T11:12:00Z,26.8015,-97.4706,1.165,1111122 
TCOON,ioos:station:TCOON:003:1,2014-07-10T12:12:00Z,26.8015,-97.4706,1.133,1111122 
TCOON,ioos:station:TCOON:003:1,2014-07-10T13:12:00Z,26.8015,-97.4706,1.135,1111122 
TCOON,ioos:station:TCOON:003:1,2014-07-10T14:12:00Z,26.8015,-97.4706,1.133,1111122 
TCOON,ioos:station:TCOON:003:1,2014-07-10T15:12:00Z,26.8015,-97.4706,1.138,1111122 
TCOON,ioos:station:TCOON:003:1,2014-07-10T16:06:00Z,26.8015,-97.4706,1.126,1111122 
TCOON,ioos:station:TCOON:003:1,2014-07-10T17:12:00Z,26.8015,-97.4706,1.122,1111122 
TCOON,ioos:station:TCOON:003:1,2014-07-10T18:12:00Z,26.8015,-97.4706,1.138,1111122 
TCOON,ioos:station:TCOON:003:1,2014-07-10T19:12:00Z,26.8015,-97.4706,1.198,1111122 
TCOON,ioos:station:TCOON:003:1,2014-07-10T20:12:00Z,26.8015,-97.4706,1.201,1111122 
TCOON,ioos:station:TCOON:003:1,2014-07-10T21:12:00Z,26.8015,-97.4706,1.198,1111122 
TCOON,ioos:station:TCOON:003:1,2014-07-10T22:12:00Z,26.8015,-97.4706,1.209,1111122 
TCOON,ioos:station:TCOON:003:1,2014-07-10T23:12:00Z,26.8015,-97.4706,1.186,1111122 
TCOON,ioos:station:TCOON:003:1,2014-07-11T00:12:00Z,26.8015,-97.4706,1.126,1111122 
TCOON,ioos:station:TCOON:003:1,2014-07-11T01:12:00Z,26.8015,-97.4706,1.1,1111122 
TCOON,ioos:station:TCOON:003:1,2014-07-11T03:12:00Z,26.8015,-97.4706,1.128,1111122 
TCOON,ioos:station:TCOON:003:1,2014-07-11T04:12:00Z,26.8015,-97.4706,1.131,1111122 
TCOON,ioos:station:TCOON:003:1,2014-07-11T05:18:00Z,26.8015,-97.4706,1.125,1111122 
TCOON,ioos:station:TCOON:003:1,2014-07-11T06:12:00Z,26.8015,-97.4706,1.118,1111122 
TCOON,ioos:station:TCOON:003:1,2014-07-11T07:12:00Z,26.8015,-97.4706,1.108,1111122 
TCOON,ioos:station:TCOON:003:1,2014-07-11T08:12:00Z,26.8015,-97.4706,1.098,1111122 
TCOON,ioos:station:TCOON:003:1,2014-07-11T09:12:00Z,26.8015,-97.4706,1.106,1111122 
TCOON,ioos:station:TCOON:003:1,2014-07-11T10:12:00Z,26.8015,-97.4706,1.119,1111122 
TCOON,ioos:station:TCOON:003:1,2014-07-11T11:12:00Z,26.8015,-97.4706,1.134,1111122 
TCOON,ioos:station:TCOON:003:1,2014-07-11T12:06:00Z,26.8015,-97.4706,1.135,1111122 
TCOON,ioos:station:TCOON:003:1,2014-07-11T13:12:00Z,26.8015,-97.4706,1.136,1111122 
TCOON,ioos:station:TCOON:003:1,2014-07-11T14:12:00Z,26.8015,-97.4706,1.141,1111122 
TCOON,ioos:station:TCOON:003:1,2014-07-11T15:12:00Z,26.8015,-97.4706,1.144,1111122 
TCOON,ioos:station:TCOON:003:1,2014-07-11T16:12:00Z,26.8015,-97.4706,1.146,1111122 
TCOON,ioos:station:TCOON:003:1,2014-07-11T17:12:00Z,26.8015,-97.4706,1.152,1111122 
TCOON,ioos:station:TCOON:003:1,2014-07-11T18:12:00Z,26.8015,-97.4706,1.18,1111122 
TCOON,ioos:station:TCOON:003:1,2014-07-11T19:12:00Z,26.8015,-97.4706,1.191,1111122 
TCOON,ioos:station:TCOON:003:1,2014-07-11T20:12:00Z,26.8015,-97.4706,1.198,1111122 
TCOON,ioos:station:TCOON:003:1,2014-07-11T21:12:00Z,26.8015,-97.4706,1.193,1111122 
TCOON,ioos:station:TCOON:003:1,2014-07-11T22:12:00Z,26.8015,-97.4706,1.185,1111122 
TCOON,ioos:station:TCOON:003:1,2014-07-11T23:12:00Z,26.8015,-97.4706,1.189,1111122 
TCOON,ioos:station:TCOON:003:1,2014-07-12T00:12:00Z,26.8015,-97.4706,1.194,1111122 
TCOON,ioos:station:TCOON:003:1,2014-07-12T01:12:00Z,26.8015,-97.4706,1.185,1111122 
TCOON,ioos:station:TCOON:003:1,2014-07-12T02:12:00Z,26.8015,-97.4706,1.165,1111122 
TCOON,ioos:station:TCOON:003:1,2014-07-12T03:12:00Z,26.8015,-97.4706,1.143,1111122 
TCOON,ioos:station:TCOON:003:1,2014-07-12T04:12:00Z,26.8015,-97.4706,1.122,1111122 
TCOON,ioos:station:TCOON:003:1,2014-07-12T05:12:00Z,26.8015,-97.4706,1.109,1111122 
TCOON,ioos:station:TCOON:003:1,2014-07-12T06:12:00Z,26.8015,-97.4706,1.111,1111122 
TCOON,ioos:station:TCOON:003:1,2014-07-12T07:12:00Z,26.8015,-97.4706,1.106,1111122 
TCOON,ioos:station:TCOON:003:1,2014-07-12T08:12:00Z,26.8015,-97.4706,1.103,1111122 
TCOON,ioos:station:TCOON:003:1,2014-07-12T09:12:00Z,26.8015,-97.4706,1.096,1111122 
TCOON,ioos:station:TCOON:003:1,2014-07-12T10:12:00Z,26.8015,-97.4706,1.087,1111122 
TCOON,ioos:station:TCOON:003:1,2014-07-12T11:12:00Z,26.8015,-97.4706,1.086,1111122 
TCOON,ioos:station:TCOON:003:1,2014-07-12T12:12:00Z,26.8015,-97.4706,1.092,1111122 
TCOON,ioos:station:TCOON:003:1,2014-07-12T13:12:00Z,26.8015,-97.4706,1.096,1111122 
TCOON,ioos:station:TCOON:003:1,2014-07-12T14:12:00Z,26.8015,-97.4706,1.1,1111122 
TCOON,ioos:station:TCOON:003:1,2014-07-12T15:12:00Z,26.8015,-97.4706,1.109,1111122 
TCOON,ioos:station:TCOON:003:1,2014-07-12T16:12:00Z,26.8015,-97.4706,1.114,1111122 
TCOON,ioos:station:TCOON:003:1,2014-07-12T17:12:00Z,26.8015,-97.4706,1.119,1111122 
TCOON,ioos:station:TCOON:003:1,2014-07-12T18:12:00Z,26.8015,-97.4706,1.121,1111122 
TCOON,ioos:station:TCOON:003:1,2014-07-12T19:12:00Z,26.8015,-97.4706,1.121,1111122 
TCOON,ioos:station:TCOON:003:1,2014-07-12T20:12:00Z,26.8015,-97.4706,1.134,1111122 
TCOON,ioos:station:TCOON:003:1,2014-07-12T21:12:00Z,26.8015,-97.4706,1.143,1111122 